sat.trackr.live / text

‹ back to catalog

STARLINK-35893

NORAD 66565 · 2025-268J

PAYLOAD ACTIVE UNKNOWN

§ Identity

Operator
Country
US
Launch date
2025-11-21
Launch site
AFETR
Launch vehicle
Mass (kg)
RCS (m²)

Purposes: comms

External: N2YO · Heavens-Above · Gunter

§ Orbital elements

Epoch: 2026-09-20T21:04:32.479680Z

Period
94.27 min
Inclination
43.0022°
Eccentricity
0.0001501
Mean motion
15.27591227 rev/d
Perigee alt
482.0 km
Apogee alt
484.0 km
Semi-major
6,861.2 km
B*
3.2608e-4
RAAN
324.5397°
Arg perigee
283.0716°
Mean anomaly
76.9968°
Rev number
4,781

§ Raw data

STARLINK-358931 66565U 25268J   26263.87815370  .00008725  00000+0  32608-3 0  99922 66565  43.0022 324.5397 0001501 283.0716  76.9968 15.27591227 47814

JSON: /api/v1/satellites/66565 · /tle

For live sub-satellite position, see the globe view (requires WebGL).

§ Visibility from observer

Set your observer location to see the next 7 days of passes ≥ 10°. The values pass through the URL so the page stays shareable.

No JS? Fill the form by hand. The geolocation button needs JavaScript.